sat.trackr.live / text

‹ back to catalog

2024-205E

NORAD 61898 · 2024-205E

PAYLOAD ACTIVE UNKNOWN

§ Identity

Operator
Country
PRC
Launch date
2024-11-11
Launch site
JSC
Launch vehicle
Mass (kg)
RCS (m²)

External: N2YO · Heavens-Above · Gunter

§ Orbital elements

Epoch: 2026-09-22T22:13:15.419424Z

Period
95.23 min
Inclination
97.4038°
Eccentricity
0.0054972
Mean motion
15.12192462 rev/d
Perigee alt
491.5 km
Apogee alt
567.5 km
Semi-major
6,907.7 km
B*
2.6120e-4
RAAN
333.5903°
Arg perigee
26.2167°
Mean anomaly
334.1828°
Rev number
10,298

§ Raw data

2024-205E1 61898U 24205E   26265.92587291  .00004610  00000+0  26120-3 0  99932 61898  97.4038 333.5903 0054972  26.2167 334.1828 15.12192462102984

JSON: /api/v1/satellites/61898 · /tle

For live sub-satellite position, see the globe view (requires WebGL).

§ Visibility from observer

Set your observer location to see the next 7 days of passes ≥ 10°. The values pass through the URL so the page stays shareable.

No JS? Fill the form by hand. The geolocation button needs JavaScript.